Simultaneous Nadir Overpasses (SNOs) Predictions

Prediction of SNOs between GOES-15 and METOP-C Satellite Orbit:

Table of predicted SNOs for the next 14.0 days since TLE Epoch: 11/28/2025
Index Date Time (GOES-15) GOES-15 Lat,Lon METOP-C Lat,Lon Distance(km) Time Diff (sec)
1 11/29/2025 17:29:00 -0.61, 61.59 -0.90, 60.40 136.87 80
2 11/30/2025 17:10:59 -0.63, 61.58 0.19, 65.40 434.33 80
3 12/02/2025 05:27:11 0.59, 61.48 0.71, 60.82 74.91 80
4 12/03/2025 05:09:11 0.62, 61.47 -0.38, 65.82 496.53 80
5 12/04/2025 17:25:30 -0.57, 61.54 -0.64, 61.23 35.99 80
6 12/07/2025 05:26:21 0.56, 61.46 0.51, 61.66 22.96 80
7 12/09/2025 17:24:40 -0.55, 61.52 -0.42, 62.06 62.13 80
8 12/11/2025 05:40:51 0.49, 61.45 1.38, 57.50 450.76 80
9 12/12/2025 05:22:51 0.53, 61.44 0.27, 62.50 120.49 80
